Zurück zum Katalog

KAZEOSAT 2

AktivWissenschaftSSO
NORAD 40010·PAYLOAD·🇰🇿 Kazakhstan

Gestartet Jun 19, 2014 von Dombarovsky

Loading…

Nächste Überflüge (nächste 24 Stunden)

TLE

AktuellSource: Space-Track

Epoche: Sep 14, 2026, 14:44 UTC

1 40010U 14033A   26257.61446970 -.00000100  00000-0 -57911-5 0  9996
2 40010  97.5359  92.4947 0009514  32.4041 327.7757 14.85556016662231

Verfolge KAZEOSAT 2 in Echtzeit mit AllMySat

Download on the App Store